Tracking 26951 objects as of 3-Feb-2023
HD Live streaming from Space Station
objects crossing your sky now

COSMOS 2300

Track COSMOS 2300 now!
10-day predictions
COSMOS 2300 is classified as:


NORAD ID: 23442
Int'l Code: 1994-086B
Perigee: 1,416.3 km
Apogee: 1,421.2 km
Inclination: 82.6 °
Period: 114.0 minutes
Semi major axis: 7789 km
RCS: 1.1654 m2 (large)
Launch date: December 26, 1994
Source: Commonwealth of Independent States (former USSR) (CIS)
Launch site: PLESETSK MISSILE AND SPACE COMPLEX (PKMTR)
Your satellite tracking list
Your tracking list is empty




NASA's NSSDC Master Catalog

Two Line Element Set (TLE):
1 23442U 94086B   23033.44917876  .00000021  00000-0  59761-4 0  9994
2 23442  82.5647  11.3736 0003168 130.9350 348.8217 12.62757670295258
Source of the keplerian elements: AFSPC